Alva, OK

11:59 PM CST on December 08, 2016 (GMT -0600)
Alva Regional

Weather History for KAVK - February, 2014

Change the Weather History Date:

Tuesday, February 18, 2014

  Actual Average Record
Temperature  
Mean Temperature 57 °F -  
Max Temperature 75 °F 51 °F 78 °F (2016)
Min Temperature 39 °F 29 °F -2 °F (1978)
Degree Days  
Heating Degree Days 8    
Growing Degree Days 7 (Base 50)    
Moisture  
Dew Point 26 °F    
Average Humidity 35    
Maximum Humidity 61    
Minimum Humidity 14    
Precipitation  
Precipitation 0.00 in - - ()
Sea Level Pressure  
Sea Level Pressure 29.88 in    
Wind  
Wind Speed 15 mph (WSW)    
Max Wind Speed 28 mph    
Max Gust Speed 37 mph    
Visibility 10 miles    
Events      
Averages and records for this station are not official NWS values.
T = Trace of Precipitation, MM = Missing Value Source: NWS Daily Summary

Daily Weather History Graph

Daily Weather History Graph

Search for Another Location

Airport or City:

Trip Planner

Search our weather history database for the weather conditions in past years. The results will help you decide how hot, cold, wet, or windy it might be!

Date:

Astronomy

Feb. 18, 2014 Rise Set
Actual Time 7:19 AM CST 6:18 PM CST
Civil Twilight 6:53 AM CST 6:44 PM CST
Nautical Twilight 6:22 AM CST 7:14 PM CST
Astronomical Twilight 5:52 AM CST 7:44 PM CST
Moon 10:05 PM CST (2/18) 8:58 AM CST (2/18)
Length of Visible Light 11h 51m
Length of Day
10h 58m
Waning Gibbous, 87% of the Moon is Illuminated
Feb 18
Waning Gibbous
Feb 22
Last Quarter
Mar 1
New
Mar 8
First Quarter
Mar 16
Full

Hourly Weather History & Observations

Time (CST) Temp. Windchill Dew Point Humidity Pressure Visibility Wind Dir Wind Speed Gust Speed Precip Events Conditions
12:05 AM 39.2 °F 33.6 °F 24.8 °F 56% 30.03 in 10.0 mi SW 8.1 mph - N/A   Clear
12:25 AM 39.2 °F 33.0 °F 24.8 °F 56% 30.03 in 10.0 mi SW 9.2 mph - N/A   Clear
12:45 AM 39.2 °F 32.0 °F 24.8 °F 56% 30.02 in 10.0 mi SW 11.5 mph - N/A   Clear
1:05 AM 39.2 °F 31.2 °F 26.6 °F 61% 30.01 in 10.0 mi SSW 13.8 mph - N/A   Clear
1:25 AM 41.0 °F 33.5 °F 26.6 °F 57% 29.99 in 10.0 mi SW 13.8 mph - N/A   Clear
1:45 AM 44.6 °F 36.9 °F 24.8 °F 46% 29.98 in 10.0 mi SW 18.4 mph 28.8 mph N/A   Clear
2:05 AM 44.6 °F 36.4 °F 24.8 °F 46% 29.98 in 10.0 mi SW 20.7 mph - N/A   Clear
2:25 AM 44.6 °F 36.9 °F 26.6 °F 49% 29.97 in 10.0 mi SW 18.4 mph - N/A   Clear
2:45 AM 44.6 °F 37.4 °F 26.6 °F 49% 29.96 in 10.0 mi SW 16.1 mph - N/A   Clear
3:05 AM 44.6 °F 37.2 °F 26.6 °F 49% 29.95 in 10.0 mi SW 17.3 mph - N/A   Clear
3:25 AM 44.6 °F 37.2 °F 26.6 °F 49% 29.94 in 10.0 mi SSW 17.3 mph - N/A   Clear
3:45 AM 42.8 °F 35.1 °F 26.6 °F 53% 29.93 in 10.0 mi SSW 16.1 mph - N/A   Partly Cloudy
4:05 AM 42.8 °F 35.1 °F 26.6 °F 53% 29.92 in 10.0 mi SSW 16.1 mph - N/A   Mostly Cloudy
4:25 AM 41.0 °F 33.5 °F 26.6 °F 57% 29.91 in 10.0 mi SSW 13.8 mph - N/A   Overcast
4:45 AM 41.0 °F 33.1 °F 26.6 °F 57% 29.90 in 10.0 mi South 15.0 mph - N/A   Overcast
5:05 AM 41.0 °F 33.5 °F 26.6 °F 57% 29.89 in 10.0 mi South 13.8 mph - N/A   Overcast
5:25 AM 41.0 °F 35.8 °F 26.6 °F 57% 29.89 in 10.0 mi South 8.1 mph - N/A   Overcast
5:45 AM 39.2 °F 33.6 °F 26.6 °F 61% 29.88 in 10.0 mi South 8.1 mph - N/A   Overcast
6:05 AM 41.0 °F 35.8 °F 26.6 °F 57% 29.87 in 10.0 mi South 8.1 mph - N/A   Overcast
6:25 AM 42.8 °F 35.8 °F 24.8 °F 49% 29.86 in 10.0 mi SSW 13.8 mph - N/A   Overcast
6:45 AM 44.6 °F 37.8 °F 24.8 °F 46% 29.86 in 10.0 mi SSW 15.0 mph - N/A   Mostly Cloudy
7:05 AM 44.6 °F 38.4 °F 26.6 °F 49% 29.86 in 10.0 mi SSW 12.7 mph - N/A   Partly Cloudy
7:25 AM 44.6 °F 38.4 °F 26.6 °F 49% 29.86 in 10.0 mi SSW 12.7 mph - N/A   Clear
7:45 AM 44.6 °F 38.1 °F 24.8 °F 46% 29.87 in 10.0 mi SW 13.8 mph - N/A   Clear
8:05 AM 46.4 °F 39.2 °F 24.8 °F 43% 29.87 in 10.0 mi SW 18.4 mph - N/A   Clear
8:25 AM 48.2 °F - 24.8 °F 40% 29.88 in 10.0 mi SW 23.0 mph 27.6 mph N/A   Clear
8:45 AM 48.2 °F - 24.8 °F 40% 29.87 in 10.0 mi SW 20.7 mph - N/A   Clear
9:10 AM 50.0 °F - 26.6 °F 40% 29.88 in 10.0 mi SW 17.3 mph 23.0 mph N/A   Clear
9:25 AM 53.6 °F - 26.6 °F 35% 29.87 in 10.0 mi SW 23.0 mph - N/A   Clear
9:45 AM 53.6 °F - 26.6 °F 35% 29.87 in 10.0 mi SW 24.2 mph - N/A   Clear
10:05 AM 55.4 °F - 26.6 °F 33% 29.85 in 10.0 mi SW 27.6 mph 35.7 mph N/A   Clear
10:25 AM 57.2 °F - 26.6 °F 31% 29.85 in 10.0 mi SW 27.6 mph 36.8 mph N/A   Clear
10:45 AM 59.0 °F - 26.6 °F 29% 29.84 in 10.0 mi SW 27.6 mph 35.7 mph N/A   Clear
11:05 AM 60.8 °F - 26.6 °F 27% 29.84 in 10.0 mi SW 27.6 mph 35.7 mph N/A   Clear
11:25 AM 62.6 °F - 26.6 °F 26% 29.83 in 10.0 mi SW 23.0 mph 34.5 mph N/A   Clear
11:45 AM 64.4 °F - 24.8 °F 22% 29.81 in 10.0 mi SW 25.3 mph 31.1 mph N/A   Clear
12:05 PM 66.2 °F - 24.8 °F 21% 29.80 in 10.0 mi WSW 25.3 mph 31.1 mph N/A   Clear
12:25 PM 66.2 °F - 24.8 °F 21% 29.78 in 10.0 mi SW 23.0 mph - N/A   Clear
12:45 PM 68.0 °F - 24.8 °F 20% 29.77 in 10.0 mi SW 16.1 mph 26.5 mph N/A   Clear
1:05 PM 69.8 °F - 24.8 °F 18% 29.77 in 10.0 mi WSW 17.3 mph 24.2 mph N/A   Clear
1:25 PM 71.6 °F - 24.8 °F 17% 29.76 in 10.0 mi West 16.1 mph - N/A   Clear
1:45 PM 71.6 °F - 24.8 °F 17% 29.76 in 10.0 mi West 13.8 mph 20.7 mph N/A   Clear
2:05 PM 73.4 °F - 26.6 °F 18% 29.76 in 10.0 mi West 13.8 mph 20.7 mph N/A   Clear
2:25 PM 73.4 °F - 24.8 °F 16% 29.76 in 10.0 mi WNW 13.8 mph 17.3 mph N/A   Clear
2:45 PM 75.2 °F - 24.8 °F 15% 29.75 in 10.0 mi WNW 10.4 mph 16.1 mph N/A   Clear
3:05 PM 75.2 °F - 24.8 °F 15% 29.75 in 10.0 mi West 12.7 mph - N/A   Clear
3:30 PM 75.2 °F - 24.8 °F 15% 29.75 in 10.0 mi WNW 16.1 mph - N/A   Clear
3:45 PM 75.2 °F - 24.8 °F 15% 29.76 in 10.0 mi NW 10.4 mph 17.3 mph N/A   Clear
4:05 PM 75.2 °F - 24.8 °F 15% 29.76 in 10.0 mi NNW 13.8 mph - N/A   Clear
4:25 PM 75.2 °F - 24.8 °F 15% 29.77 in 10.0 mi NNW 15.0 mph - N/A   Clear
4:45 PM 75.2 °F - 23.0 °F 14% 29.78 in 10.0 mi NW 11.5 mph 19.6 mph N/A   Clear
5:05 PM 73.4 °F - 26.6 °F 18% 29.79 in 10.0 mi NW 10.4 mph - N/A   Clear
5:25 PM 71.6 °F - 26.6 °F 19% 29.80 in 10.0 mi NNW 10.4 mph - N/A   Clear
5:45 PM 71.6 °F - 24.8 °F 17% 29.82 in 10.0 mi North 11.5 mph - N/A   Clear
6:05 PM 68.0 °F - 28.4 °F 23% 29.84 in 10.0 mi North 11.5 mph - N/A   Clear
6:25 PM 64.4 °F - 26.6 °F 24% 29.86 in 10.0 mi North 10.4 mph - N/A   Clear
6:45 PM 60.8 °F - 26.6 °F 27% 29.87 in 10.0 mi North 17.3 mph - N/A   Clear
7:05 PM 64.4 °F - 23.0 °F 21% 29.89 in 10.0 mi North 17.3 mph 26.5 mph N/A   Clear
7:25 PM 62.6 °F - 23.0 °F 22% 29.91 in 10.0 mi North 13.8 mph - N/A   Clear
7:45 PM 59.0 °F - 23.0 °F 25% 29.92 in 10.0 mi North 10.4 mph - N/A   Clear
8:05 PM 57.2 °F - 24.8 °F 29% 29.93 in 10.0 mi North 11.5 mph - N/A   Clear
8:25 PM 57.2 °F - 24.8 °F 29% 29.94 in 10.0 mi North 11.5 mph - N/A   Clear
8:45 PM 57.2 °F - 24.8 °F 29% 29.96 in 10.0 mi North 13.8 mph 20.7 mph N/A   Partly Cloudy
9:05 PM 55.4 °F - 24.8 °F 31% 29.96 in 10.0 mi North 15.0 mph - N/A   Scattered Clouds
9:25 PM 53.6 °F - 24.8 °F 33% 29.98 in 10.0 mi North 13.8 mph 17.3 mph N/A   Overcast
9:45 PM 53.6 °F - 24.8 °F 33% 29.97 in 10.0 mi NNE 11.5 mph - N/A   Mostly Cloudy
10:05 PM 51.8 °F - 24.8 °F 35% 29.98 in 10.0 mi NNE 13.8 mph - N/A   Scattered Clouds
10:25 PM 50.0 °F - 26.6 °F 40% 29.99 in 10.0 mi North 11.5 mph - N/A   Partly Cloudy
10:45 PM 50.0 °F - 26.6 °F 40% 29.98 in 10.0 mi NNE 13.8 mph - N/A   Partly Cloudy
11:05 PM 48.2 °F - 26.6 °F 43% 29.99 in 10.0 mi North 10.4 mph - N/A   Partly Cloudy
11:25 PM 46.4 °F 40.7 °F 26.6 °F 46% 29.99 in 10.0 mi NNE 12.7 mph - N/A   Clear
11:45 PM 50.0 °F - 26.6 °F 40% 29.98 in 10.0 mi NNE 13.8 mph - N/A   Clear